FREQUENCY,Transmission
 1678000000 ,-40.4281632292
 1678250000 ,-40.0604688176
 1678500000 ,-39.7519676685
 1678750000 ,-39.5399555887
 1679000000 ,-39.2318660138
 1679250000 ,-38.963708111
 1679500000 ,-38.5900688473
 1679750000 ,-38.310357852
 1680000000 ,-38.0703713171
 1680250000 ,-37.8132092528
 1680500000 ,-37.6271449436
 1680750000 ,-37.568583418
 1681000000 ,-37.3577955477
 1681250000 ,-37.360038206
 1681500000 ,-37.166996649
 1681750000 ,-37.0750732149
 1682000000 ,-37.0228578505
 1682250000 ,-36.9733142094
 1682500000 ,-36.9672987742
 1682750000 ,-36.8989044336
 1683000000 ,-36.8211675822
 1683250000 ,-36.820044245
 1683500000 ,-36.7335203403
 1683750000 ,-36.68774845
 1684000000 ,-36.6484239557
 1684250000 ,-36.6029754776
 1684500000 ,-36.4924732577
 1684750000 ,-36.5218623379
 1685000000 ,-36.5250424646
 1685250000 ,-36.5217643507
 1685500000 ,-36.4778087423
 1685750000 ,-36.3278933871
 1686000000 ,-36.2907982262
 1686250000 ,-36.2135175533
 1686500000 ,-36.2198402317
 1686750000 ,-36.2261647881
 1687000000 ,-36.1865338834
 1687250000 ,-36.0585018072
 1687500000 ,-36.0153627268
 1687750000 ,-36.0540938721
 1688000000 ,-36.0964720531
 1688250000 ,-36.0746699013
 1688500000 ,-36.0665505242
 1688750000 ,-35.7502561098
 1689000000 ,-35.6685558044
 1689250000 ,-35.5610532626
 1689500000 ,-35.2253164347
 1689750000 ,-34.9249838447
 1690000000 ,-34.6695757846
 1690250000 ,-34.2954357014
 1690500000 ,-33.9435497394
 1690750000 ,-33.6334613804
 1691000000 ,-33.2797237669
 1691250000 ,-33.002660222
 1691500000 ,-32.6739447819
 1691750000 ,-32.3442540363
 1692000000 ,-32.0480279671
 1692250000 ,-31.7285273184
 1692500000 ,-31.4313889114
 1692750000 ,-31.012446274
 1693000000 ,-30.5631580898
 1693250000 ,-30.2461989724
 1693500000 ,-29.9019766153
 1693750000 ,-29.5408349715
 1694000000 ,-29.1730295799
 1694250000 ,-28.8123629187
 1694500000 ,-28.411843833
 1694750000 ,-28.002842083
 1695000000 ,-27.6758479345
 1695250000 ,-27.3933422305
 1695500000 ,-27.037169759
 1695750000 ,-26.6886530218
 1696000000 ,-26.399883312
 1696250000 ,-26.025571844
 1696500000 ,-25.6756338742
 1696750000 ,-25.3271792095
 1697000000 ,-25.0108097284
 1697250000 ,-24.640877765
 1697500000 ,-24.3046643154
 1697750000 ,-23.9380263207
 1698000000 ,-23.6241114093
 1698250000 ,-23.3031919237
 1698500000 ,-22.980271385
 1698750000 ,-22.6947574916
 1699000000 ,-22.3967992396
 1699250000 ,-22.0986286957
 1699500000 ,-21.7896648463
 1699750000 ,-21.5285778949
 1700000000 ,-21.2517484621
 1700250000 ,-20.9794224379
 1700500000 ,-20.7460361168
 1700750000 ,-20.5545982011
 1701000000 ,-20.3272382714
 1701250000 ,-20.158540619
 1701500000 ,-19.9607938215
 1701750000 ,-19.7495378343
 1702000000 ,-19.5657642358
 1702250000 ,-19.3859705707
 1702500000 ,-19.2020625885
 1702750000 ,-19.0060441045
 1703000000 ,-18.8146369153
 1703250000 ,-18.662519407
 1703500000 ,-18.5076465783
 1703750000 ,-18.3599856684
 1704000000 ,-18.2011660719
 1704250000 ,-18.054332884
 1704500000 ,-17.8759395673
 1704750000 ,-17.736484963
 1705000000 ,-17.5851155126
 1705250000 ,-17.443576804
 1705500000 ,-17.300996372
 1705750000 ,-17.1700558771
 1706000000 ,-17.0087354479
 1706250000 ,-16.8532785458
 1706500000 ,-16.7324629141
 1706750000 ,-16.5725993875
 1707000000 ,-16.4293894929
 1707250000 ,-16.278546623
 1707500000 ,-16.0910967261
 1707750000 ,-15.9247681563
 1708000000 ,-15.7526982104
 1708250000 ,-15.5769615428
 1708500000 ,-15.3958422371
 1708750000 ,-15.201295019
 1709000000 ,-15.0233490727
 1709250000 ,-14.8374954055
 1709500000 ,-14.6490447913
 1709750000 ,-14.4512048826
 1710000000 ,-14.2768367827
 1710250000 ,-14.0726719106
 1710500000 ,-13.8894179473
 1710750000 ,-13.7129156743
 1711000000 ,-13.5310356524
 1711250000 ,-13.3680088657
 1711500000 ,-13.1762343859
 1711750000 ,-13.0321920633
 1712000000 ,-12.8629944209
 1712250000 ,-12.7008008052
 1712500000 ,-12.534362935
 1712750000 ,-12.3842027998
 1713000000 ,-12.2823735995
 1713250000 ,-12.1883481666
 1713500000 ,-12.0777938347
 1713750000 ,-11.9525326111
 1714000000 ,-11.8531336027
 1714250000 ,-11.743481739
 1714500000 ,-11.6871840837
 1714750000 ,-11.6239992547
 1715000000 ,-11.5632025702
 1715250000 ,-11.5110622025
 1715500000 ,-11.4792106639
 1715750000 ,-11.4338661275
 1716000000 ,-11.4113320763
 1716250000 ,-11.3778001989
 1716500000 ,-11.3489465095
 1716750000 ,-11.3199749904
 1717000000 ,-11.2820603967
 1717250000 ,-11.2579174993
 1717500000 ,-11.2323509877
 1717750000 ,-11.195973139
 1718000000 ,-11.1510611142
 1718250000 ,-11.1343978447
 1718500000 ,-11.0953905675
 1718750000 ,-11.0534227034
 1719000000 ,-11.0071246264
 1719250000 ,-10.9467540551
 1719500000 ,-10.9045749359
 1719750000 ,-10.8473375883
 1720000000 ,-10.8054133511
 1720250000 ,-10.7669153526
 1720500000 ,-10.7123834633
 1720750000 ,-10.662747085
 1721000000 ,-10.6133313243
 1721250000 ,-10.571204305
 1721500000 ,-10.5245529387
 1721750000 ,-10.4693019239
 1722000000 ,-10.4235259293
 1722250000 ,-10.3668447358
 1722500000 ,-10.3196175619
 1722750000 ,-10.2744805711
 1723000000 ,-10.2341765927
 1723250000 ,-10.1892841027
 1723500000 ,-10.1467470948
 1723750000 ,-10.1009367579
 1724000000 ,-10.0561303972
 1724250000 ,-10.0259899713
 1724500000 ,-10.0171818175
 1724750000 ,-10.0073608269
 1725000000 ,-9.9900466983
 1725250000 ,-9.98250484947
 1725500000 ,-9.99351531326
 1725750000 ,-10.0082546055
 1726000000 ,-10.0544637356
 1726250000 ,-10.0698456589
 1726500000 ,-10.0854436593
 1726750000 ,-10.1414622189
 1727000000 ,-10.1821134683
 1727250000 ,-10.210733481
 1727500000 ,-10.2622122441
 1727750000 ,-10.3294693421
 1728000000 ,-10.3994038895
 1728250000 ,-10.4593404797
 1728500000 ,-10.514806118
 1728750000 ,-10.5719950871
 1729000000 ,-10.6264014437
 1729250000 ,-10.6775275629
 1729500000 ,-10.7235300647
 1729750000 ,-10.7621917027
 1730000000 ,-10.805497513
 1730250000 ,-10.8486205771
 1730500000 ,-10.8852563138
 1730750000 ,-10.9123325838
 1731000000 ,-10.9327712414
 1731250000 ,-10.9612563375
 1731500000 ,-10.9859817667
 1731750000 ,-11.0126647804
 1732000000 ,-11.0411130608
 1732250000 ,-11.0502588267
 1732500000 ,-11.0614380385
 1732750000 ,-11.0643982467
 1733000000 ,-11.0527774064
 1733250000 ,-11.0557629609
 1733500000 ,-11.0461004556
 1733750000 ,-11.0544257855
 1734000000 ,-11.0478033735
 1734250000 ,-11.033945332
 1734500000 ,-11.0149801009
 1734750000 ,-11.0180891516
 1735000000 ,-11.0084695283
 1735250000 ,-11.012104422
 1735500000 ,-10.99623883
 1735750000 ,-10.987818073
 1736000000 ,-10.9799081954
 1736250000 ,-11.0076816852
 1736500000 ,-11.0237305642
 1736750000 ,-11.0432208189
 1737000000 ,-11.0804593857
 1737250000 ,-11.1306219671
 1737500000 ,-11.1768745355
 1737750000 ,-11.2250112923
 1738000000 ,-11.2646487466
 1738250000 ,-11.3106883326
 1738500000 ,-11.3753937041
 1738750000 ,-11.4495509138
 1739000000 ,-11.5216512974
 1739250000 ,-11.6295133308
 1739500000 ,-11.7355787619
 1739750000 ,-11.8134326759
 1740000000 ,-11.91240185
 1740250000 ,-11.9987186506
 1740500000 ,-12.0988098937
 1740750000 ,-12.2133211188
 1741000000 ,-12.3220568236
 1741250000 ,-12.4342835602
 1741500000 ,-12.5539367855
 1741750000 ,-12.6686713696
 1742000000 ,-12.7803062096
 1742250000 ,-12.8871463076
 1742500000 ,-13.019775055
 1742750000 ,-13.145284024
 1743000000 ,-13.2792893992
 1743250000 ,-13.4114841754
 1743500000 ,-13.5605998847
 1743750000 ,-13.6817983634
 1744000000 ,-13.7823609525
 1744250000 ,-13.8925805031
 1744500000 ,-14.0340566453
 1744750000 ,-14.1805938792
 1745000000 ,-14.3260084454
 1745250000 ,-14.430515166
 1745500000 ,-14.5635217742
 1745750000 ,-14.7343658333
 1746000000 ,-14.8864748449
 1746250000 ,-15.0591847297
 1746500000 ,-15.2485398247
 1746750000 ,-15.4579142319
 1747000000 ,-15.6490659665
 1747250000 ,-15.8670547095
 1747500000 ,-16.0567350299
 1747750000 ,-16.2647087075
 1748000000 ,-16.447612567
 1748250000 ,-16.6652555993
 1748500000 ,-16.9246959439
 1748750000 ,-17.2129928529
 1749000000 ,-17.4603288157
 1749250000 ,-17.7642871578
 1749500000 ,-18.0155443128
 1749750000 ,-18.3209946599
 1750000000 ,-18.5938655145
 1750250000 ,-18.8517629193
 1750500000 ,-19.1057279387
 1750750000 ,-19.3892559264
 1751000000 ,-19.6889697534
 1751250000 ,-20.0056179061
 1751500000 ,-20.3469128529
 1751750000 ,-20.6828941779
 1752000000 ,-21.0426440796
 1752250000 ,-21.4125280765
 1752500000 ,-21.8225066474
 1752750000 ,-22.2453452436
 1753000000 ,-22.6527622324
 1753250000 ,-23.1523455178
 1753500000 ,-23.6733369422
 1753750000 ,-24.1042409001
 1754000000 ,-24.578360657
 1754250000 ,-25.0871247588
 1754500000 ,-25.6377930602
 1754750000 ,-26.1343741932
 1755000000 ,-26.5680048621
 1755250000 ,-27.0896300683
 1755500000 ,-27.7105067248
 1755750000 ,-28.2422707156
 1756000000 ,-28.9124780131
 1756250000 ,-29.524729284
 1756500000 ,-30.1467243484
 1756750000 ,-30.7572345501
 1757000000 ,-31.3608023122
 1757250000 ,-31.9482562729
 1757500000 ,-32.7724101973
 1757750000 ,-33.4800710645
 1758000000 ,-34.1607956041
 1758250000 ,-34.7329945049
 1758500000 ,-35.0210856404
 1758750000 ,-35.4363423439
 1759000000 ,-35.8151626584
 1759250000 ,-36.1818833423
 1759500000 ,-36.6046528977
 1759750000 ,-36.9428037093
 1760000000 ,-37.188123531
 1760250000 ,-37.0187905687
 1760500000 ,-36.9323347665
 1760750000 ,-36.7777414509
 1761000000 ,-36.6844743746
 1761250000 ,-36.560384656
 1761500000 ,-36.2395351101
 1761750000 ,-36.2377655141
 1762000000 ,-36.2268126439
 1762250000 ,-36.3749464095
 1762500000 ,-36.3280412917
 1762750000 ,-36.2781513404
 1763000000 ,-36.2562870961
 1763250000 ,-35.9943226498
 1763500000 ,-35.9130666403
 1763750000 ,-35.8001969853
 1764000000 ,-35.6038932355
 1764250000 ,-35.5200275609
 1764500000 ,-35.3928457872
 1764750000 ,-35.4668302213
 1765000000 ,-35.6038650671
 1765250000 ,-35.5709430695
 1765500000 ,-35.3912020895
 1765750000 ,-35.3441881553
 1766000000 ,-35.2823550434
 1766250000 ,-35.1974892511
 1766500000 ,-35.3600572249
 1766750000 ,-35.3113903036
 1767000000 ,-35.3865411529
 1767250000 ,-35.5609469417
 1767500000 ,-35.7706727622
 1767750000 ,-35.9259482435
 1768000000 ,-36.0730422149
 1768250000 ,-36.3384877749
 1768500000 ,-36.5223862083
 1768750000 ,-36.7451545214
 1769000000 ,-37.0549296415
 1769250000 ,-37.4322547572
 1769500000 ,-37.5575211706
 1769750000 ,-37.7695938186
 1770000000 ,-37.8939851833
 1770250000 ,-38.0568189795
 1770500000 ,-38.2358869173
 1770750000 ,-38.4137851016
 1771000000 ,-38.6092803256
 1771250000 ,-38.642772168
 1771500000 ,-39.0437830241
 1771750000 ,-39.3146409967
 1772000000 ,-39.6735170922
 1772250000 ,-39.8435896395
 1772500000 ,-40.1119844162
 1772750000 ,-40.3446169247
 1773000000 ,-40.499026974
 1773250000 ,-40.7045430638
 1773500000 ,-41.1098529913
 1773750000 ,-41.2858062775
 1774000000 ,-41.6806784726
 1774250000 ,-42.2967927779
 1774500000 ,-42.4410412187
 1774750000 ,-42.6664688523
 1775000000 ,-42.7536691437
 1775250000 ,-43.2159932133
 1775500000 ,-43.6719119624
 1775750000 ,-44.1354684366
 1776000000 ,-44.4829007779
 1776250000 ,-44.7067354509
 1776500000 ,-44.9625597371
 1776750000 ,-45.650278822
 1777000000 ,-45.942488269
 1777250000 ,-46.0170712375
 1777500000 ,-46.2096713279
 1777750000 ,-46.596046118
 1778000000 ,-46.9936780831
